owner,sensor,date,latitude,longitude,vertical_datum,mass_concentration_of_oxygen_in_sea_water,qcFlag 
SCCF RECON,ioos:station:SCCF:11:1,2016-11-01T00:00:00Z,26.4679,-82.0631,1.93,7.3,1111122 
SCCF RECON,ioos:station:SCCF:11:1,2016-11-01T01:00:00Z,26.4679,-82.0631,1.98,7.31,1111122 
SCCF RECON,ioos:station:SCCF:11:1,2016-11-01T02:00:00Z,26.4679,-82.0631,2.06,7.16,1111122 
SCCF RECON,ioos:station:SCCF:11:1,2016-11-01T03:00:00Z,26.4679,-82.0631,2.2,7.06,1111122 
SCCF RECON,ioos:station:SCCF:11:1,2016-11-01T04:00:00Z,26.4679,-82.0631,2.28,6.75,1111122 
SCCF RECON,ioos:station:SCCF:11:1,2016-11-01T05:00:00Z,26.4679,-82.0631,2.32,7.03,1111122 
SCCF RECON,ioos:station:SCCF:11:1,2016-11-01T06:00:00Z,26.4679,-82.0631,2.31,6.88,1111122 
SCCF RECON,ioos:station:SCCF:11:1,2016-11-01T07:00:00Z,26.4679,-82.0631,2.25,6.69,1111122 
SCCF RECON,ioos:station:SCCF:11:1,2016-11-01T08:00:00Z,26.4679,-82.0631,2.15,6.7,1111122 
SCCF RECON,ioos:station:SCCF:11:1,2016-11-01T09:00:00Z,26.4679,-82.0631,2.03,6.61,1111122 
SCCF RECON,ioos:station:SCCF:11:1,2016-11-01T10:00:00Z,26.4679,-82.0631,1.89,6.26,1111122 
SCCF RECON,ioos:station:SCCF:11:1,2016-11-01T11:00:00Z,26.4679,-82.0631,1.778,6.03,1111122 
SCCF RECON,ioos:station:SCCF:11:1,2016-11-01T12:00:00Z,26.4679,-82.0631,1.67,6.0,1111122 
SCCF RECON,ioos:station:SCCF:11:1,2016-11-01T13:00:00Z,26.4679,-82.0631,1.61,6.0,1111122 
SCCF RECON,ioos:station:SCCF:11:1,2016-11-01T14:00:00Z,26.4679,-82.0631,1.65,6.22,1111122 
SCCF RECON,ioos:station:SCCF:11:1,2016-11-01T15:00:00Z,26.4679,-82.0631,1.79,6.57,1111122 
SCCF RECON,ioos:station:SCCF:11:1,2016-11-01T16:00:00Z,26.4679,-82.0631,1.96,7.1,1111122 
SCCF RECON,ioos:station:SCCF:11:1,2016-11-01T17:00:00Z,26.4679,-82.0631,2.08,7.43,1111122 
SCCF RECON,ioos:station:SCCF:11:1,2016-11-01T18:00:00Z,26.4679,-82.0631,2.168,7.02,1111122 
SCCF RECON,ioos:station:SCCF:11:1,2016-11-01T19:00:00Z,26.4679,-82.0631,2.21,7.09,1111122 
SCCF RECON,ioos:station:SCCF:11:1,2016-11-01T20:00:00Z,26.4679,-82.0631,2.213,6.95,1111122 
SCCF RECON,ioos:station:SCCF:11:1,2016-11-01T21:00:00Z,26.4679,-82.0631,2.15,7.34,1111122 
SCCF RECON,ioos:station:SCCF:11:1,2016-11-01T22:00:00Z,26.4679,-82.0631,2.08,7.5,1111122 
SCCF RECON,ioos:station:SCCF:11:1,2016-11-01T23:00:00Z,26.4679,-82.0631,2.02,7.52,1111122 
SCCF RECON,ioos:station:SCCF:11:1,2016-11-02T00:00:00Z,26.4679,-82.0631,1.97,7.31,1111122 
SCCF RECON,ioos:station:SCCF:11:1,2016-11-02T01:00:00Z,26.4679,-82.0631,1.98,7.05,1111122 
SCCF RECON,ioos:station:SCCF:11:1,2016-11-02T02:00:00Z,26.4679,-82.0631,2.041,6.56,1111122 
SCCF RECON,ioos:station:SCCF:11:1,2016-11-02T03:00:00Z,26.4679,-82.0631,2.161,6.59,1111122 
SCCF RECON,ioos:station:SCCF:11:1,2016-11-02T04:00:00Z,26.4679,-82.0631,2.272,7.01,1111122 
SCCF RECON,ioos:station:SCCF:11:1,2016-11-02T05:00:00Z,26.4679,-82.0631,2.35,7.13,1111122 
SCCF RECON,ioos:station:SCCF:11:1,2016-11-02T06:00:00Z,26.4679,-82.0631,2.369,6.54,1111122 
SCCF RECON,ioos:station:SCCF:11:1,2016-11-02T07:00:00Z,26.4679,-82.0631,2.32,6.79,1111122 
SCCF RECON,ioos:station:SCCF:11:1,2016-11-02T08:00:00Z,26.4679,-82.0631,2.219,6.88,1111122 
SCCF RECON,ioos:station:SCCF:11:1,2016-11-02T09:00:00Z,26.4679,-82.0631,2.1,6.74,1111122 
SCCF RECON,ioos:station:SCCF:11:1,2016-11-02T10:00:00Z,26.4679,-82.0631,1.97,6.45,1111122 
SCCF RECON,ioos:station:SCCF:11:1,2016-11-02T11:00:00Z,26.4679,-82.0631,1.85,6.25,1111122 
SCCF RECON,ioos:station:SCCF:11:1,2016-11-02T12:00:00Z,26.4679,-82.0631,1.73,5.95,1111122 
SCCF RECON,ioos:station:SCCF:11:1,2016-11-02T13:00:00Z,26.4679,-82.0631,1.62,5.89,1111122 
SCCF RECON,ioos:station:SCCF:11:1,2016-11-02T14:00:00Z,26.4679,-82.0631,1.57,5.85,1111122 
SCCF RECON,ioos:station:SCCF:11:1,2016-11-02T15:00:00Z,26.4679,-82.0631,1.66,6.18,1111122 
SCCF RECON,ioos:station:SCCF:11:1,2016-11-02T16:00:00Z,26.4679,-82.0631,1.85,6.47,1111122 
SCCF RECON,ioos:station:SCCF:11:1,2016-11-02T17:00:00Z,26.4679,-82.0631,2.0,7.24,1111122 
SCCF RECON,ioos:station:SCCF:11:1,2016-11-02T18:00:00Z,26.4679,-82.0631,2.09,6.88,1111122 
SCCF RECON,ioos:station:SCCF:11:1,2016-11-02T19:00:00Z,26.4679,-82.0631,2.16,6.8,1111122 
SCCF RECON,ioos:station:SCCF:11:1,2016-11-02T20:00:00Z,26.4679,-82.0631,2.17,6.91,1111122 
SCCF RECON,ioos:station:SCCF:11:1,2016-11-02T21:00:00Z,26.4679,-82.0631,2.15,6.86,1111122 
SCCF RECON,ioos:station:SCCF:11:1,2016-11-02T22:00:00Z,26.4679,-82.0631,2.11,7.41,1111122 
SCCF RECON,ioos:station:SCCF:11:1,2016-11-02T23:00:00Z,26.4679,-82.0631,2.04,7.38,1111122 
SCCF RECON,ioos:station:SCCF:11:1,2016-11-03T00:00:00Z,26.4679,-82.0631,1.966,7.23,1111122 
SCCF RECON,ioos:station:SCCF:11:1,2016-11-03T01:00:00Z,26.4679,-82.0631,1.92,7.17,1111122 
SCCF RECON,ioos:station:SCCF:11:1,2016-11-03T02:00:00Z,26.4679,-82.0631,1.94,6.85,1111122 
SCCF RECON,ioos:station:SCCF:11:1,2016-11-03T03:00:00Z,26.4679,-82.0631,2.04,6.75,1111122 
SCCF RECON,ioos:station:SCCF:11:1,2016-11-03T04:00:00Z,26.4679,-82.0631,2.173,6.96,1111122 
SCCF RECON,ioos:station:SCCF:11:1,2016-11-03T05:00:00Z,26.4679,-82.0631,2.27,7.01,1111122 
SCCF RECON,ioos:station:SCCF:11:1,2016-11-03T06:00:00Z,26.4679,-82.0631,2.31,6.8,1111122 
SCCF RECON,ioos:station:SCCF:11:1,2016-11-03T07:00:00Z,26.4679,-82.0631,2.31,6.59,1111122 
SCCF RECON,ioos:station:SCCF:11:1,2016-11-03T08:00:00Z,26.4679,-82.0631,2.25,6.68,1111122 
SCCF RECON,ioos:station:SCCF:11:1,2016-11-03T09:00:00Z,26.4679,-82.0631,2.15,6.68,1111122 
SCCF RECON,ioos:station:SCCF:11:1,2016-11-03T10:00:00Z,26.4679,-82.0631,2.04,6.41,1111122 
SCCF RECON,ioos:station:SCCF:11:1,2016-11-03T11:00:00Z,26.4679,-82.0631,1.921,6.11,1111122 
SCCF RECON,ioos:station:SCCF:11:1,2016-11-03T12:00:00Z,26.4679,-82.0631,1.817,6.11,1111122 
SCCF RECON,ioos:station:SCCF:11:1,2016-11-03T13:00:00Z,26.4679,-82.0631,1.69,5.83,1111122 
SCCF RECON,ioos:station:SCCF:11:1,2016-11-03T14:00:00Z,26.4679,-82.0631,1.6,5.84,1111122 
SCCF RECON,ioos:station:SCCF:11:1,2016-11-03T15:00:00Z,26.4679,-82.0631,1.62,5.95,1111122 
SCCF RECON,ioos:station:SCCF:11:1,2016-11-03T16:00:00Z,26.4679,-82.0631,1.75,6.17,1111122 
SCCF RECON,ioos:station:SCCF:11:1,2016-11-03T17:00:00Z,26.4679,-82.0631,1.9,6.7,1111122 
SCCF RECON,ioos:station:SCCF:11:1,2016-11-03T18:00:00Z,26.4679,-82.0631,2.01,7.29,1111122 
SCCF RECON,ioos:station:SCCF:11:1,2016-11-03T19:00:00Z,26.4679,-82.0631,2.1,7.22,1111122 
SCCF RECON,ioos:station:SCCF:11:1,2016-11-03T20:00:00Z,26.4679,-82.0631,2.148,6.96,1111122 
SCCF RECON,ioos:station:SCCF:11:1,2016-11-03T21:00:00Z,26.4679,-82.0631,2.15,7.06,1111122 
SCCF RECON,ioos:station:SCCF:11:1,2016-11-03T22:00:00Z,26.4679,-82.0631,2.07,7.5,1111122 
SCCF RECON,ioos:station:SCCF:11:1,2016-11-03T23:00:00Z,26.4679,-82.0631,2.0,7.45,1111122 
SCCF RECON,ioos:station:SCCF:11:1,2016-11-04T00:00:00Z,26.4679,-82.0631,1.99,7.22,1111122 
SCCF RECON,ioos:station:SCCF:11:1,2016-11-04T01:00:00Z,26.4679,-82.0631,1.981,7.03,1111122 
SCCF RECON,ioos:station:SCCF:11:1,2016-11-04T02:00:00Z,26.4679,-82.0631,1.97,7.15,1111122 
SCCF RECON,ioos:station:SCCF:11:1,2016-11-04T03:00:00Z,26.4679,-82.0631,2.02,7.07,1111122 
SCCF RECON,ioos:station:SCCF:11:1,2016-11-04T04:00:00Z,26.4679,-82.0631,2.09,6.84,1111122 
SCCF RECON,ioos:station:SCCF:11:1,2016-11-04T05:00:00Z,26.4679,-82.0631,2.18,6.83,1111122 
SCCF RECON,ioos:station:SCCF:11:1,2016-11-04T06:00:00Z,26.4679,-82.0631,2.23,7.05,1111122 
SCCF RECON,ioos:station:SCCF:11:1,2016-11-04T07:00:00Z,26.4679,-82.0631,2.26,6.99,1111122 
SCCF RECON,ioos:station:SCCF:11:1,2016-11-04T08:00:00Z,26.4679,-82.0631,2.25,6.49,1111122 
SCCF RECON,ioos:station:SCCF:11:1,2016-11-04T09:00:00Z,26.4679,-82.0631,2.18,6.62,1111122 
SCCF RECON,ioos:station:SCCF:11:1,2016-11-04T10:00:00Z,26.4679,-82.0631,2.05,6.5,1111122 
SCCF RECON,ioos:station:SCCF:11:1,2016-11-04T11:00:00Z,26.4679,-82.0631,1.927,6.14,1111122 
SCCF RECON,ioos:station:SCCF:11:1,2016-11-04T12:00:00Z,26.4679,-82.0631,1.81,5.95,1111122 
SCCF RECON,ioos:station:SCCF:11:1,2016-11-04T13:00:00Z,26.4679,-82.0631,1.71,5.76,1111122 
SCCF RECON,ioos:station:SCCF:11:1,2016-11-04T14:00:00Z,26.4679,-82.0631,1.629,5.73,1111122 
SCCF RECON,ioos:station:SCCF:11:1,2016-11-04T15:00:00Z,26.4679,-82.0631,1.585,5.98,1111122 
SCCF RECON,ioos:station:SCCF:11:1,2016-11-04T16:00:00Z,26.4679,-82.0631,1.63,6.45,1111122 
SCCF RECON,ioos:station:SCCF:11:1,2016-11-04T17:00:00Z,26.4679,-82.0631,1.75,6.48,1111122 
SCCF RECON,ioos:station:SCCF:11:1,2016-11-04T18:00:00Z,26.4679,-82.0631,1.88,6.83,1111122 
SCCF RECON,ioos:station:SCCF:11:1,2016-11-04T19:00:00Z,26.4679,-82.0631,1.98,7.45,1111122 
SCCF RECON,ioos:station:SCCF:11:1,2016-11-04T20:00:00Z,26.4679,-82.0631,2.03,7.5,1111122 
SCCF RECON,ioos:station:SCCF:11:1,2016-11-04T21:00:00Z,26.4679,-82.0631,2.086,7.72,1111122 
SCCF RECON,ioos:station:SCCF:11:1,2016-11-04T22:00:00Z,26.4679,-82.0631,2.097,7.95,1111122 
SCCF RECON,ioos:station:SCCF:11:1,2016-11-04T23:00:00Z,26.4679,-82.0631,2.06,8.05,1111122 
SCCF RECON,ioos:station:SCCF:11:1,2016-11-05T00:00:00Z,26.4679,-82.0631,1.99,7.83,1111122 
SCCF RECON,ioos:station:SCCF:11:1,2016-11-05T01:00:00Z,26.4679,-82.0631,1.95,7.54,1111122 
SCCF RECON,ioos:station:SCCF:11:1,2016-11-05T02:00:00Z,26.4679,-82.0631,1.92,7.26,1111122 
SCCF RECON,ioos:station:SCCF:11:1,2016-11-05T03:00:00Z,26.4679,-82.0631,1.92,7.06,1111122 
SCCF RECON,ioos:station:SCCF:11:1,2016-11-05T04:00:00Z,26.4679,-82.0631,1.99,6.86,1111122 
SCCF RECON,ioos:station:SCCF:11:1,2016-11-05T05:00:00Z,26.4679,-82.0631,2.08,6.87,1111122 
SCCF RECON,ioos:station:SCCF:11:1,2016-11-05T06:00:00Z,26.4679,-82.0631,2.17,6.9,1111122 
SCCF RECON,ioos:station:SCCF:11:1,2016-11-05T07:00:00Z,26.4679,-82.0631,2.21,6.61,1111122 
SCCF RECON,ioos:station:SCCF:11:1,2016-11-05T08:00:00Z,26.4679,-82.0631,2.22,6.03,1111122 
SCCF RECON,ioos:station:SCCF:11:1,2016-11-05T09:00:00Z,26.4679,-82.0631,2.2,6.44,1111122 
SCCF RECON,ioos:station:SCCF:11:1,2016-11-05T10:00:00Z,26.4679,-82.0631,2.121,6.6,1111122 
SCCF RECON,ioos:station:SCCF:11:1,2016-11-05T11:00:00Z,26.4679,-82.0631,1.99,6.35,1111122 
SCCF RECON,ioos:station:SCCF:11:1,2016-11-05T12:00:00Z,26.4679,-82.0631,1.831,5.83,1111122 
SCCF RECON,ioos:station:SCCF:11:1,2016-11-05T13:00:00Z,26.4679,-82.0631,1.74,5.84,1111122 
SCCF RECON,ioos:station:SCCF:11:1,2016-11-05T14:00:00Z,26.4679,-82.0631,1.66,5.72,1111122 
SCCF RECON,ioos:station:SCCF:11:1,2016-11-05T15:00:00Z,26.4679,-82.0631,1.6,5.91,1111122 
SCCF RECON,ioos:station:SCCF:11:1,2016-11-05T16:00:00Z,26.4679,-82.0631,1.59,6.1,1111122 
SCCF RECON,ioos:station:SCCF:11:1,2016-11-05T17:00:00Z,26.4679,-82.0631,1.64,6.58,1111122 
SCCF RECON,ioos:station:SCCF:11:1,2016-11-05T18:00:00Z,26.4679,-82.0631,1.748,6.9,1111122 
SCCF RECON,ioos:station:SCCF:11:1,2016-11-05T19:00:00Z,26.4679,-82.0631,1.84,7.59,1111122 
SCCF RECON,ioos:station:SCCF:11:1,2016-11-05T20:00:00Z,26.4679,-82.0631,1.94,7.67,1111122 
SCCF RECON,ioos:station:SCCF:11:1,2016-11-05T21:00:00Z,26.4679,-82.0631,2.02,7.69,1111122 
SCCF RECON,ioos:station:SCCF:11:1,2016-11-05T22:00:00Z,26.4679,-82.0631,2.09,7.48,1111122 
SCCF RECON,ioos:station:SCCF:11:1,2016-11-05T23:00:00Z,26.4679,-82.0631,2.1,7.24,1111122 
SCCF RECON,ioos:station:SCCF:11:1,2016-11-06T00:00:00Z,26.4679,-82.0631,2.079,6.95,1111122 
SCCF RECON,ioos:station:SCCF:11:1,2016-11-06T01:00:00Z,26.4679,-82.0631,2.02,7.09,1111122 
SCCF RECON,ioos:station:SCCF:11:1,2016-11-06T02:00:00Z,26.4679,-82.0631,1.96,7.06,1111122 
SCCF RECON,ioos:station:SCCF:11:1,2016-11-06T03:00:00Z,26.4679,-82.0631,1.92,6.93,1111122 
SCCF RECON,ioos:station:SCCF:11:1,2016-11-06T04:00:00Z,26.4679,-82.0631,1.892,7.01,1111122 
SCCF RECON,ioos:station:SCCF:11:1,2016-11-06T05:00:00Z,26.4679,-82.0631,1.894,6.9,1111122 
SCCF RECON,ioos:station:SCCF:11:1,2016-11-06T06:00:00Z,26.4679,-82.0631,1.94,6.73,1111122 
SCCF RECON,ioos:station:SCCF:11:1,2016-11-06T07:00:00Z,26.4679,-82.0631,1.994,6.52,1111122 
SCCF RECON,ioos:station:SCCF:11:1,2016-11-06T08:00:00Z,26.4679,-82.0631,2.07,6.15,1111122 
SCCF RECON,ioos:station:SCCF:11:1,2016-11-06T09:00:00Z,26.4679,-82.0631,2.08,6.06,1111122 
SCCF RECON,ioos:station:SCCF:11:1,2016-11-06T10:00:00Z,26.4679,-82.0631,2.09,6.51,1111122 
SCCF RECON,ioos:station:SCCF:11:1,2016-11-06T11:00:00Z,26.4679,-82.0631,2.039,6.57,1111122 
SCCF RECON,ioos:station:SCCF:11:1,2016-11-06T12:00:00Z,26.4679,-82.0631,1.94,6.37,1111122 
SCCF RECON,ioos:station:SCCF:11:1,2016-11-06T13:00:00Z,26.4679,-82.0631,1.82,6.12,1111122 
SCCF RECON,ioos:station:SCCF:11:1,2016-11-06T14:00:00Z,26.4679,-82.0631,1.72,6.12,1111122 
SCCF RECON,ioos:station:SCCF:11:1,2016-11-06T15:00:00Z,26.4679,-82.0631,1.625,6.42,1111122 
SCCF RECON,ioos:station:SCCF:11:1,2016-11-06T16:00:00Z,26.4679,-82.0631,1.57,6.33,1111122 
SCCF RECON,ioos:station:SCCF:11:1,2016-11-06T17:00:00Z,26.4679,-82.0631,1.574,6.89,1111122 
SCCF RECON,ioos:station:SCCF:11:1,2016-11-06T18:00:00Z,26.4679,-82.0631,1.637,6.91,1111122 
SCCF RECON,ioos:station:SCCF:11:1,2016-11-06T19:00:00Z,26.4679,-82.0631,1.733,7.73,1111122 
SCCF RECON,ioos:station:SCCF:11:1,2016-11-06T20:00:00Z,26.4679,-82.0631,1.83,7.74,1111122 
SCCF RECON,ioos:station:SCCF:11:1,2016-11-06T21:00:00Z,26.4679,-82.0631,1.919,7.93,1111122 
SCCF RECON,ioos:station:SCCF:11:1,2016-11-06T22:00:00Z,26.4679,-82.0631,1.99,7.92,1111122 
SCCF RECON,ioos:station:SCCF:11:1,2016-11-06T23:00:00Z,26.4679,-82.0631,2.04,7.72,1111122 
SCCF RECON,ioos:station:SCCF:11:1,2016-11-07T00:00:00Z,26.4679,-82.0631,2.06,7.43,1111122 
SCCF RECON,ioos:station:SCCF:11:1,2016-11-07T01:00:00Z,26.4679,-82.0631,2.061,7.15,1111122 
SCCF RECON,ioos:station:SCCF:11:1,2016-11-07T02:00:00Z,26.4679,-82.0631,2.04,7.16,1111122 
SCCF RECON,ioos:station:SCCF:11:1,2016-11-07T03:00:00Z,26.4679,-82.0631,2.02,6.86,1111122 
SCCF RECON,ioos:station:SCCF:11:1,2016-11-07T04:00:00Z,26.4679,-82.0631,1.98,7.1,1111122 
SCCF RECON,ioos:station:SCCF:11:1,2016-11-07T05:00:00Z,26.4679,-82.0631,1.94,6.93,1111122 
SCCF RECON,ioos:station:SCCF:11:1,2016-11-07T06:00:00Z,26.4679,-82.0631,1.93,7.07,1111122 
SCCF RECON,ioos:station:SCCF:11:1,2016-11-07T07:00:00Z,26.4679,-82.0631,1.98,6.89,1111122 
SCCF RECON,ioos:station:SCCF:11:1,2016-11-07T08:00:00Z,26.4679,-82.0631,2.057,6.44,1111122 
SCCF RECON,ioos:station:SCCF:11:1,2016-11-07T09:00:00Z,26.4679,-82.0631,2.135,6.38,1111122 
SCCF RECON,ioos:station:SCCF:11:1,2016-11-07T10:00:00Z,26.4679,-82.0631,2.176,6.48,1111122 
SCCF RECON,ioos:station:SCCF:11:1,2016-11-07T11:00:00Z,26.4679,-82.0631,2.14,6.62,1111122 
SCCF RECON,ioos:station:SCCF:11:1,2016-11-07T12:00:00Z,26.4679,-82.0631,2.05,6.49,1111122 
SCCF RECON,ioos:station:SCCF:11:1,2016-11-07T13:00:00Z,26.4679,-82.0631,1.959,6.42,1111122 
SCCF RECON,ioos:station:SCCF:11:1,2016-11-07T14:00:00Z,26.4679,-82.0631,1.854,6.5,1111122 
SCCF RECON,ioos:station:SCCF:11:1,2016-11-07T15:00:00Z,26.4679,-82.0631,1.743,6.6,1111122 
SCCF RECON,ioos:station:SCCF:11:1,2016-11-07T16:00:00Z,26.4679,-82.0631,1.666,6.94,1111122 
SCCF RECON,ioos:station:SCCF:11:1,2016-11-07T17:00:00Z,26.4679,-82.0631,1.61,7.23,1111122 
SCCF RECON,ioos:station:SCCF:11:1,2016-11-07T18:00:00Z,26.4679,-82.0631,1.59,7.09,1111122 
SCCF RECON,ioos:station:SCCF:11:1,2016-11-07T19:00:00Z,26.4679,-82.0631,1.63,7.56,1111122 
SCCF RECON,ioos:station:SCCF:11:1,2016-11-07T20:00:00Z,26.4679,-82.0631,1.739,7.87,1111122 
SCCF RECON,ioos:station:SCCF:11:1,2016-11-07T21:00:00Z,26.4679,-82.0631,1.86,7.99,1111122 
SCCF RECON,ioos:station:SCCF:11:1,2016-11-07T22:00:00Z,26.4679,-82.0631,1.934,7.8,1111122 
SCCF RECON,ioos:station:SCCF:11:1,2016-11-07T23:00:00Z,26.4679,-82.0631,1.99,7.74,1111122 
SCCF RECON,ioos:station:SCCF:11:1,2016-11-08T00:00:00Z,26.4679,-82.0631,2.03,7.42,1111122 
SCCF RECON,ioos:station:SCCF:11:1,2016-11-08T01:00:00Z,26.4679,-82.0631,2.04,7.07,1111122 
SCCF RECON,ioos:station:SCCF:11:1,2016-11-08T02:00:00Z,26.4679,-82.0631,1.98,7.42,1111122 
SCCF RECON,ioos:station:SCCF:11:1,2016-11-08T03:00:00Z,26.4679,-82.0631,1.93,7.39,1111122 
SCCF RECON,ioos:station:SCCF:11:1,2016-11-08T04:00:00Z,26.4679,-82.0631,1.926,7.05,1111122 
SCCF RECON,ioos:station:SCCF:11:1,2016-11-08T05:00:00Z,26.4679,-82.0631,1.89,7.02,1111122 
SCCF RECON,ioos:station:SCCF:11:1,2016-11-08T06:00:00Z,26.4679,-82.0631,1.84,6.92,1111122 
SCCF RECON,ioos:station:SCCF:11:1,2016-11-08T07:00:00Z,26.4679,-82.0631,1.85,6.81,1111122 
SCCF RECON,ioos:station:SCCF:11:1,2016-11-08T08:00:00Z,26.4679,-82.0631,1.93,6.71,1111122 
SCCF RECON,ioos:station:SCCF:11:1,2016-11-08T09:00:00Z,26.4679,-82.0631,2.05,6.67,1111122 
SCCF RECON,ioos:station:SCCF:11:1,2016-11-08T10:00:00Z,26.4679,-82.0631,2.12,6.67,1111122 
SCCF RECON,ioos:station:SCCF:11:1,2016-11-08T11:00:00Z,26.4679,-82.0631,2.15,6.53,1111122 
SCCF RECON,ioos:station:SCCF:11:1,2016-11-08T12:00:00Z,26.4679,-82.0631,2.17,6.67,1111122 
SCCF RECON,ioos:station:SCCF:11:1,2016-11-08T13:00:00Z,26.4679,-82.0631,2.145,6.65,1111122 
SCCF RECON,ioos:station:SCCF:11:1,2016-11-08T14:00:00Z,26.4679,-82.0631,2.078,6.96,1111122 
SCCF RECON,ioos:station:SCCF:11:1,2016-11-08T15:00:00Z,26.4679,-82.0631,1.982,6.69,1111122 
SCCF RECON,ioos:station:SCCF:11:1,2016-11-08T16:00:00Z,26.4679,-82.0631,1.9,6.73,1111122 
SCCF RECON,ioos:station:SCCF:11:1,2016-11-08T17:00:00Z,26.4679,-82.0631,1.81,6.85,1111122 
SCCF RECON,ioos:station:SCCF:11:1,2016-11-08T18:00:00Z,26.4679,-82.0631,1.721,7.66,1111122 
SCCF RECON,ioos:station:SCCF:11:1,2016-11-08T19:00:00Z,26.4679,-82.0631,1.72,7.44,1111122 
SCCF RECON,ioos:station:SCCF:11:1,2016-11-08T20:00:00Z,26.4679,-82.0631,1.81,7.68,1111122 
SCCF RECON,ioos:station:SCCF:11:1,2016-11-08T21:00:00Z,26.4679,-82.0631,1.94,8.24,1111122 
SCCF RECON,ioos:station:SCCF:11:1,2016-11-08T22:00:00Z,26.4679,-82.0631,2.05,8.0,1111122 
SCCF RECON,ioos:station:SCCF:11:1,2016-11-08T23:00:00Z,26.4679,-82.0631,2.13,7.77,1111122 
SCCF RECON,ioos:station:SCCF:11:1,2016-11-09T00:00:00Z,26.4679,-82.0631,2.22,7.32,1111122 
SCCF RECON,ioos:station:SCCF:11:1,2016-11-09T01:00:00Z,26.4679,-82.0631,2.26,6.75,1111122 
SCCF RECON,ioos:station:SCCF:11:1,2016-11-09T02:00:00Z,26.4679,-82.0631,2.26,7.24,1111122 
SCCF RECON,ioos:station:SCCF:11:1,2016-11-09T03:00:00Z,26.4679,-82.0631,2.23,7.28,1111122 
SCCF RECON,ioos:station:SCCF:11:1,2016-11-09T04:00:00Z,26.4679,-82.0631,2.18,7.24,1111122 
SCCF RECON,ioos:station:SCCF:11:1,2016-11-09T05:00:00Z,26.4679,-82.0631,2.07,7.36,1111122 
SCCF RECON,ioos:station:SCCF:11:1,2016-11-09T06:00:00Z,26.4679,-82.0631,1.971,7.07,1111122 
SCCF RECON,ioos:station:SCCF:11:1,2016-11-09T07:00:00Z,26.4679,-82.0631,1.911,6.97,1111122 
SCCF RECON,ioos:station:SCCF:11:1,2016-11-09T08:00:00Z,26.4679,-82.0631,1.906,6.95,1111122 
SCCF RECON,ioos:station:SCCF:11:1,2016-11-09T09:00:00Z,26.4679,-82.0631,1.96,6.86,1111122 
SCCF RECON,ioos:station:SCCF:11:1,2016-11-09T10:00:00Z,26.4679,-82.0631,2.05,6.9,1111122 
SCCF RECON,ioos:station:SCCF:11:1,2016-11-09T11:00:00Z,26.4679,-82.0631,2.16,6.76,1111122 
SCCF RECON,ioos:station:SCCF:11:1,2016-11-09T12:00:00Z,26.4679,-82.0631,2.22,6.7,1111122 
SCCF RECON,ioos:station:SCCF:11:1,2016-11-09T13:00:00Z,26.4679,-82.0631,2.252,6.67,1111122 
SCCF RECON,ioos:station:SCCF:11:1,2016-11-09T14:00:00Z,26.4679,-82.0631,2.23,6.63,1111122 
SCCF RECON,ioos:station:SCCF:11:1,2016-11-09T15:00:00Z,26.4679,-82.0631,2.122,6.85,1111122 
SCCF RECON,ioos:station:SCCF:11:1,2016-11-09T16:00:00Z,26.4679,-82.0631,2.006,6.82,1111122 
SCCF RECON,ioos:station:SCCF:11:1,2016-11-09T17:00:00Z,26.4679,-82.0631,1.9,6.98,1111122 
SCCF RECON,ioos:station:SCCF:11:1,2016-11-09T18:00:00Z,26.4679,-82.0631,1.81,7.17,1111122 
SCCF RECON,ioos:station:SCCF:11:1,2016-11-09T19:00:00Z,26.4679,-82.0631,1.749,7.52,1111122 
SCCF RECON,ioos:station:SCCF:11:1,2016-11-09T20:00:00Z,26.4679,-82.0631,1.74,7.38,1111122 
SCCF RECON,ioos:station:SCCF:11:1,2016-11-09T21:00:00Z,26.4679,-82.0631,1.8,8.02,1111122 
SCCF RECON,ioos:station:SCCF:11:1,2016-11-09T22:00:00Z,26.4679,-82.0631,1.931,8.08,1111122 
SCCF RECON,ioos:station:SCCF:11:1,2016-11-09T23:00:00Z,26.4679,-82.0631,2.05,7.72,1111122 
SCCF RECON,ioos:station:SCCF:11:1,2016-11-10T00:00:00Z,26.4679,-82.0631,2.15,7.66,1111122 
SCCF RECON,ioos:station:SCCF:11:1,2016-11-10T01:00:00Z,26.4679,-82.0631,2.26,6.99,1111122 
SCCF RECON,ioos:station:SCCF:11:1,2016-11-10T02:00:00Z,26.4679,-82.0631,2.31,7.29,1111122 
SCCF RECON,ioos:station:SCCF:11:1,2016-11-10T03:00:00Z,26.4679,-82.0631,2.31,7.0,1111122 
SCCF RECON,ioos:station:SCCF:11:1,2016-11-10T04:00:00Z,26.4679,-82.0631,2.25,7.08,1111122 
SCCF RECON,ioos:station:SCCF:11:1,2016-11-10T05:00:00Z,26.4679,-82.0631,2.15,7.42,1111122 
SCCF RECON,ioos:station:SCCF:11:1,2016-11-10T06:00:00Z,26.4679,-82.0631,2.03,7.17,1111122 
SCCF RECON,ioos:station:SCCF:11:1,2016-11-10T07:00:00Z,26.4679,-82.0631,1.91,6.97,1111122 
SCCF RECON,ioos:station:SCCF:11:1,2016-11-10T08:00:00Z,26.4679,-82.0631,1.83,6.83,1111122 
SCCF RECON,ioos:station:SCCF:11:1,2016-11-10T09:00:00Z,26.4679,-82.0631,1.83,6.95,1111122 
SCCF RECON,ioos:station:SCCF:11:1,2016-11-10T10:00:00Z,26.4679,-82.0631,1.94,7.23,1111122 
SCCF RECON,ioos:station:SCCF:11:1,2016-11-10T11:00:00Z,26.4679,-82.0631,2.051,6.56,1111122 
SCCF RECON,ioos:station:SCCF:11:1,2016-11-10T12:00:00Z,26.4679,-82.0631,2.14,6.61,1111122 
SCCF RECON,ioos:station:SCCF:11:1,2016-11-10T13:00:00Z,26.4679,-82.0631,2.19,6.71,1111122 
SCCF RECON,ioos:station:SCCF:11:1,2016-11-10T14:00:00Z,26.4679,-82.0631,2.23,6.57,1111122 
SCCF RECON,ioos:station:SCCF:11:1,2016-11-10T15:00:00Z,26.4679,-82.0631,2.23,6.64,1111122 
SCCF RECON,ioos:station:SCCF:11:1,2016-11-10T16:00:00Z,26.4679,-82.0631,2.166,6.8,1111122 
SCCF RECON,ioos:station:SCCF:11:1,2016-11-10T17:00:00Z,26.4679,-82.0631,2.05,7.29,1111122 
SCCF RECON,ioos:station:SCCF:11:1,2016-11-10T18:00:00Z,26.4679,-82.0631,1.92,7.2,1111122 
SCCF RECON,ioos:station:SCCF:11:1,2016-11-10T19:00:00Z,26.4679,-82.0631,1.82,7.38,1111122 
SCCF RECON,ioos:station:SCCF:11:1,2016-11-10T20:00:00Z,26.4679,-82.0631,1.741,7.73,1111122 
SCCF RECON,ioos:station:SCCF:11:1,2016-11-10T21:00:00Z,26.4679,-82.0631,1.73,8.39,1111122 
SCCF RECON,ioos:station:SCCF:11:1,2016-11-10T22:00:00Z,26.4679,-82.0631,1.82,8.07,1111122 
SCCF RECON,ioos:station:SCCF:11:1,2016-11-10T23:00:00Z,26.4679,-82.0631,1.962,7.6,1111122 
SCCF RECON,ioos:station:SCCF:11:1,2016-11-11T00:00:00Z,26.4679,-82.0631,2.09,6.95,1111122 
SCCF RECON,ioos:station:SCCF:11:1,2016-11-11T01:00:00Z,26.4679,-82.0631,2.19,7.59,1111122 
SCCF RECON,ioos:station:SCCF:11:1,2016-11-11T02:00:00Z,26.4679,-82.0631,2.28,7.19,1111122 
SCCF RECON,ioos:station:SCCF:11:1,2016-11-11T03:00:00Z,26.4679,-82.0631,2.32,7.22,1111122 
SCCF RECON,ioos:station:SCCF:11:1,2016-11-11T04:00:00Z,26.4679,-82.0631,2.29,7.15,1111122 
SCCF RECON,ioos:station:SCCF:11:1,2016-11-11T05:00:00Z,26.4679,-82.0631,2.15,7.28,1111122 
SCCF RECON,ioos:station:SCCF:11:1,2016-11-11T06:00:00Z,26.4679,-82.0631,1.99,6.83,1111122 
SCCF RECON,ioos:station:SCCF:11:1,2016-11-11T07:00:00Z,26.4679,-82.0631,1.86,6.73,1111122 
SCCF RECON,ioos:station:SCCF:11:1,2016-11-11T08:00:00Z,26.4679,-82.0631,1.752,6.52,1111122 
SCCF RECON,ioos:station:SCCF:11:1,2016-11-11T09:00:00Z,26.4679,-82.0631,1.667,6.37,1111122 
SCCF RECON,ioos:station:SCCF:11:1,2016-11-11T10:00:00Z,26.4679,-82.0631,1.67,6.37,1111122 
SCCF RECON,ioos:station:SCCF:11:1,2016-11-11T11:00:00Z,26.4679,-82.0631,1.8,6.35,1111122 
SCCF RECON,ioos:station:SCCF:11:1,2016-11-11T12:00:00Z,26.4679,-82.0631,1.99,6.31,1111122 
SCCF RECON,ioos:station:SCCF:11:1,2016-11-11T13:00:00Z,26.4679,-82.0631,2.11,6.54,1111122 
SCCF RECON,ioos:station:SCCF:11:1,2016-11-11T14:00:00Z,26.4679,-82.0631,2.2,6.36,1111122 
SCCF RECON,ioos:station:SCCF:11:1,2016-11-11T15:00:00Z,26.4679,-82.0631,2.28,6.56,1111122 
SCCF RECON,ioos:station:SCCF:11:1,2016-11-11T16:00:00Z,26.4679,-82.0631,2.282,6.79,1111122 
SCCF RECON,ioos:station:SCCF:11:1,2016-11-11T17:00:00Z,26.4679,-82.0631,2.18,6.93,1111122 
SCCF RECON,ioos:station:SCCF:11:1,2016-11-11T18:00:00Z,26.4679,-82.0631,2.041,7.08,1111122 
SCCF RECON,ioos:station:SCCF:11:1,2016-11-11T19:00:00Z,26.4679,-82.0631,1.93,7.17,1111122 
SCCF RECON,ioos:station:SCCF:11:1,2016-11-11T20:00:00Z,26.4679,-82.0631,1.849,7.32,1111122 
SCCF RECON,ioos:station:SCCF:11:1,2016-11-11T21:00:00Z,26.4679,-82.0631,1.78,7.43,1111122 